BCS505 LDDU-LOWI

Flight info

Callsign BCS505
Flight time N/A
Altitude 36000
Route AMUGO DCT ALIVO DCT VEKEN DCT NANIT NANIT2A
Aircraft B738/M-SDE2E3FGHIRWXY/LB1

Departure

Time 2025-10-28 05:56
Airport Dubrovnik Ruđer Bošković Airport (LDDU)

Arrival

Time N/A
Airport Innsbruck Airport (LOWI)
Time Latitude Longitude Altitude Speed Heading
2025-10-28 05:12 42.55910 18.26743 511 ft 0 kts 207°
2025-10-28 05:39 42.55935 18.26760 512 ft 3 kts 206°
2025-10-28 05:40 42.55950 18.26770 512 ft 0 kts 209°
2025-10-28 05:46 42.55944 18.26775 512 ft 1 kts 117°
2025-10-28 05:47 42.55939 18.26812 512 ft 2 kts 99°
2025-10-28 05:48 42.55817 18.27161 507 ft 30 kts 116°
2025-10-28 05:48 42.55763 18.27293 504 ft 0 kts 118°
2025-10-28 05:48 42.55752 18.27321 504 ft 9 kts 118°
2025-10-28 05:49 42.55631 18.27636 495 ft 27 kts 117°
2025-10-28 05:49 42.55508 18.27934 491 ft 25 kts 123°
2025-10-28 05:50 42.55490 18.28135 488 ft 0 kts 24°
2025-10-28 05:51 42.55497 18.28139 488 ft 5 kts 25°
2025-10-28 05:51 42.55529 18.28160 486 ft 0 kts 26°
2025-10-28 05:52 42.55603 18.28148 482 ft 17 kts 315°
2025-10-28 05:52 42.55637 18.28078 482 ft 0 kts 295°
2025-10-28 05:53 42.55643 18.28063 483 ft 1 kts 295°
2025-10-28 05:54 42.55648 18.28050 483 ft 0 kts 293°
2025-10-28 05:54 42.55679 18.27968 484 ft 37 kts 298°
2025-10-28 05:55 42.55904 18.27410 499 ft 107 kts 297°
2025-10-28 05:55 42.57277 18.23662 1829 ft 179 kts 300°
2025-10-28 05:56 42.58425 18.21003 2982 ft 189 kts 304°
2025-10-28 05:56 42.59750 18.17678 4109 ft 213 kts 300°
2025-10-28 05:57 42.59774 18.13819 5106 ft 250 kts 247°
2025-10-28 05:57 42.58080 18.09662 6641 ft 254 kts 246°
2025-10-28 05:58 42.56473 18.05425 8171 ft 255 kts 248°
2025-10-28 05:58 42.55642 18.03235 8878 ft 258 kts 248°
2025-10-28 05:59 42.54401 17.99016 10181 ft 257 kts 269°
2025-10-28 05:59 42.54429 17.91664 11624 ft 290 kts 274°
2025-10-28 06:00 42.54419 17.85996 12789 ft 307 kts 274°
2025-10-28 06:00 42.54413 17.80488 14338 ft 307 kts 274°
2025-10-28 06:01 42.54411 17.75197 15609 ft 311 kts 275°
2025-10-28 06:02 42.54416 17.66456 17639 ft 316 kts 277°
2025-10-28 06:02 42.55815 17.58285 19481 ft 307 kts 306°
2025-10-28 06:03 42.57071 17.56235 20057 ft 309 kts 315°
2025-10-28 06:03 42.61995 17.51473 20408 ft 293 kts 325°
2025-10-28 06:04 42.65022 17.48828 20403 ft 264 kts 324°
2025-10-28 06:04 42.67960 17.46201 20414 ft 258 kts 324°
2025-10-28 06:05 42.70505 17.43910 20416 ft 263 kts 324°
2025-10-28 06:05 42.73236 17.41448 20419 ft 261 kts 324°
2025-10-28 06:06 42.74408 17.40390 20418 ft 261 kts 324°
2025-10-28 06:06 42.77142 17.37908 20618 ft 283 kts 324°
2025-10-28 06:07 42.80485 17.34874 20947 ft 310 kts 324°
2025-10-28 06:07 42.85813 17.30047 22600 ft 317 kts 324°
2025-10-28 06:08 42.89510 17.26684 23647 ft 322 kts 325°
2025-10-28 06:08 42.93171 17.23347 24590 ft 327 kts 324°
2025-10-28 06:09 42.96875 17.19969 25505 ft 332 kts 325°